Simultaneous Nadir Overpasses (SNOs) Predictions

Prediction of SNOs between GOES-15 and TERRA Satellite Orbit:

Table of predicted SNOs for the next 14.0 days since TLE Epoch: 4/2/2016
Index Date Time (GOES-15) GOES-15 Lat,Lon TERRA Lat,Lon Distance(km) Time Diff (sec)
1 04/03/2016 07:22:04 0.01,-135.19 0.41,-133.33 211.58 80
2 04/03/2016 19:43:20 -0.02,-135.23 0.65,-138.50 370.53 80
3 04/05/2016 19:31:09 -0.01,-135.27 0.02,-135.54 30.05 80
4 04/07/2016 19:21:37 -0.01,-135.31 -0.56,-132.57 310.09 80
5 04/08/2016 07:43:02 0.02,-135.29 -0.51,-137.77 282.42 80
6 04/10/2016 07:28:11 0.01,-135.31 0.14,-134.82 56.71 80
7 04/12/2016 07:15:59 0.02,-135.33 0.73,-131.85 395.10 80
8 04/12/2016 19:37:15 -0.02,-135.36 0.33,-137.02 188.12 80
9 04/14/2016 19:27:44
